EN

Hourly Weather Ocosingo

Today, 18 May, Tuesday

Time Temperature Precipitation Wind Pressure Humidity
00:00 +18°C° 0 mm 1 mps 662 mmHg 90%
01:00 +18°C° 0 mm 1 mps 661 mmHg 90%
02:00 +18°C° 0 mm 1 mps 661 mmHg 89%
03:00 +18°C° 0 mm 1 mps 661 mmHg 89%
04:00 +18°C° 0 mm 1 mps 661 mmHg 88%
05:00 +18°C° 0 mm 1 mps 661 mmHg 87%
06:00 +18°C° 0 mm 1 mps 661 mmHg 87%
07:00 +21°C° 0 mm 1 mps 662 mmHg 74%
08:00 +23°C° 0 mm 0 mps 663 mmHg 62%
09:00 +26°C° 0 mm 0 mps 664 mmHg 49%
10:00 +29°C° 0 mm 1 mps 664 mmHg 45%
11:00 +31°C° 0 mm 1 mps 664 mmHg 41%
12:00 +32°C° 0 mm 1 mps 664 mmHg 37%
13:00 +30°C° 0.7 mm 1 mps 663 mmHg 46%
14:00 +29°C° 0.7 mm 1 mps 662 mmHg 55%
15:00 +27°C° 0.7 mm 1 mps 661 mmHg 64%
16:00 +24°C° 5.9 mm 1 mps 661 mmHg 74%
17:00 +21°C° 5.9 mm 1 mps 661 mmHg 85%
18:00 +19°C° 5.9 mm 1 mps 661 mmHg 96%
19:00 +18°C° 0.1 mm 1 mps 661 mmHg 96%
20:00 +18°C° 0.1 mm 1 mps 661 mmHg 96%
21:00 +18°C° 0.1 mm 1 mps 661 mmHg 96%
22:00 +18°C° 0 mm 1 mps 661 mmHg 95%
23:00 +18°C° 0 mm 1 mps 661 mmHg 93%

Tomorrow, 19 May, Wednesday

Time Temperature Precipitation Wind Pressure Humidity
00:00 +18°C° 0 mm 1 mps 661 mmHg 92%
01:00 +18°C° 0 mm 1 mps 661 mmHg 92%
02:00 +18°C° 0 mm 1 mps 661 mmHg 92%
03:00 +16°C° 0 mm 1 mps 660 mmHg 92%
04:00 +16°C° 0 mm 1 mps 660 mmHg 91%
05:00 +16°C° 0 mm 1 mps 660 mmHg 90%
06:00 +16°C° 0 mm 1 mps 661 mmHg 90%
07:00 +21°C° 0 mm 1 mps 661 mmHg 76%
08:00 +24°C° 0 mm 1 mps 662 mmHg 63%
09:00 +26°C° 0 mm 0 mps 663 mmHg 50%
10:00 +27°C° 0 mm 0 mps 663 mmHg 44%
11:00 +31°C° 0 mm 1 mps 663 mmHg 39%
12:00 +33°C° 0 mm 1 mps 663 mmHg 33%
13:00 +32°C° 0 mm 1 mps 662 mmHg 37%
14:00 +31°C° 0 mm 1 mps 661 mmHg 41%
15:00 +30°C° 0 mm 1 mps 661 mmHg 45%
16:00 +28°C° 0.5 mm 1 mps 661 mmHg 56%
17:00 +26°C° 0.5 mm 1 mps 660 mmHg 68%
18:00 +24°C° 0.5 mm 1 mps 660 mmHg 79%
19:00 +22°C° 1.6 mm 1 mps 661 mmHg 85%
20:00 +21°C° 1.6 mm 1 mps 661 mmHg 90%
21:00 +20°C° 1.6 mm 1 mps 661 mmHg 96%
22:00 +19°C° 0.2 mm 1 mps 661 mmHg 96%
23:00 +19°C° 0.2 mm 1 mps 661 mmHg 95%

Day after tomorrow, 20 May, Thursday

Time Temperature Precipitation Wind Pressure Humidity
00:00 +19°C° 0.2 mm 1 mps 661 mmHg 95%
01:00 +19°C° 0 mm 1 mps 660 mmHg 94%
02:00 +19°C° 0 mm 1 mps 660 mmHg 94%
03:00 +18°C° 0 mm 1 mps 660 mmHg 94%
04:00 +18°C° 0.1 mm 1 mps 660 mmHg 94%
05:00 +18°C° 0.1 mm 1 mps 660 mmHg 94%
06:00 +18°C° 0.1 mm 1 mps 661 mmHg 94%
07:00 +21°C° 0 mm 1 mps 661 mmHg 82%
08:00 +24°C° 0 mm 1 mps 662 mmHg 70%
09:00 +27°C° 0 mm 1 mps 663 mmHg 58%
10:00 +29°C° 0 mm 1 mps 663 mmHg 52%
11:00 +30°C° 0 mm 1 mps 663 mmHg 46%
12:00 +32°C° 0 mm 1 mps 663 mmHg 40%
13:00 +29°C° 1.9 mm 1 mps 662 mmHg 51%
14:00 +27°C° 1.9 mm 1 mps 661 mmHg 62%
15:00 +25°C° 1.9 mm 1 mps 661 mmHg 74%
16:00 +23°C° 4.1 mm 1 mps 661 mmHg 80%
17:00 +22°C° 4.1 mm 1 mps 661 mmHg 87%
18:00 +20°C° 4.1 mm 1 mps 661 mmHg 93%
19:00 +19°C° 0.3 mm 1 mps 661 mmHg 94%
20:00 +19°C° 0.3 mm 1 mps 661 mmHg 94%
21:00 +18°C° 0.3 mm 1 mps 661 mmHg 95%
22:00 +18°C° 0 mm 1 mps 661 mmHg 95%
23:00 +18°C° 0 mm 1 mps 661 mmHg 94%

21 May, Friday

Time Temperature Precipitation Wind Pressure Humidity
00:00 +16°C° 0 mm 0 mps 661 mmHg 94%
01:00 +16°C° 0 mm 1 mps 661 mmHg 94%
02:00 +16°C° 0 mm 1 mps 661 mmHg 94%
03:00 +16°C° 0 mm 1 mps 661 mmHg 94%
04:00 +16°C° 0 mm 1 mps 661 mmHg 93%
05:00 +16°C° 0 mm 1 mps 662 mmHg 93%
06:00 +16°C° 0 mm 1 mps 662 mmHg 92%
07:00 +20°C° 0 mm 1 mps 663 mmHg 80%
08:00 +21°C° 0 mm 0 mps 664 mmHg 68%
09:00 +24°C° 0 mm 0 mps 664 mmHg 56%
10:00 +27°C° 0 mm 1 mps 664 mmHg 52%
11:00 +29°C° 0 mm 1 mps 664 mmHg 49%
12:00 +30°C° 0 mm 1 mps 664 mmHg 45%
13:00 +28°C° 0.3 mm 1 mps 664 mmHg 53%
14:00 +27°C° 0.3 mm 1 mps 663 mmHg 62%
15:00 +25°C° 0.3 mm 1 mps 663 mmHg 71%
16:00 +24°C° 1.1 mm 1 mps 663 mmHg 77%
17:00 +21°C° 1.1 mm 0 mps 663 mmHg 84%
18:00 +19°C° 1.1 mm 0 mps 663 mmHg 91%
19:00 +19°C° 0.3 mm 0 mps 663 mmHg 92%
20:00 +18°C° 0.3 mm 0 mps 663 mmHg 93%
21:00 +19°C° 0.3 mm 1 mps 663 mmHg 94%
22:00 +19°C° 0.3 mm 1 mps 663 mmHg 95%
23:00 +19°C° 0.3 mm 1 mps 664 mmHg 95%

22 May, Saturday

Time Temperature Precipitation Wind Pressure Humidity
00:00 +19°C° 0.3 mm 1 mps 664 mmHg 95%
01:00 +19°C° 0 mm 1 mps 663 mmHg 95%
02:00 +18°C° 0 mm 1 mps 663 mmHg 96%
03:00 +18°C° 0 mm 1 mps 663 mmHg 96%
04:00 +18°C° 0 mm 1 mps 663 mmHg 95%
05:00 +18°C° 0 mm 1 mps 663 mmHg 95%
06:00 +18°C° 0 mm 1 mps 663 mmHg 95%
07:00 +20°C° 0 mm 1 mps 664 mmHg 86%
08:00 +23°C° 0 mm 1 mps 664 mmHg 77%
09:00 +25°C° 0 mm 1 mps 665 mmHg 68%
10:00 +26°C° 0 mm 1 mps 665 mmHg 64%
11:00 +26°C° 0 mm 1 mps 665 mmHg 60%
12:00 +27°C° 0 mm 1 mps 665 mmHg 56%
13:00 +26°C° 0.3 mm 1 mps 664 mmHg 64%
14:00 +25°C° 0.3 mm 1 mps 664 mmHg 71%
15:00 +24°C° 0.3 mm 1 mps 663 mmHg 78%
16:00 +23°C° 0.6 mm 1 mps 663 mmHg 83%
17:00 +22°C° 0.6 mm 1 mps 663 mmHg 88%
18:00 +19°C° 0.6 mm 0 mps 663 mmHg 93%
19:00 +19°C° 0.7 mm 0 mps 663 mmHg 94%
20:00 +18°C° 0.7 mm 0 mps 663 mmHg 96%
21:00 +17°C° 0.7 mm 0 mps 664 mmHg 97%
22:00 +17°C° 0.5 mm 0 mps 664 mmHg 97%
23:00 +17°C° 0.5 mm 0 mps 664 mmHg 97%

23 May, Sunday

Time Temperature Precipitation Wind Pressure Humidity
00:00 +17°C° 0.5 mm 0 mps 664 mmHg 97%
01:00 +17°C° 0.1 mm 0 mps 663 mmHg 97%
02:00 +17°C° 0.1 mm 0 mps 663 mmHg 97%
03:00 +17°C° 0.1 mm 0 mps 662 mmHg 97%
04:00 +17°C° 0 mm 0 mps 662 mmHg 97%
05:00 +17°C° 0 mm 0 mps 663 mmHg 96%
06:00 +17°C° 0 mm 0 mps 663 mmHg 96%
07:00 +18°C° 0 mm 0 mps 663 mmHg 91%
08:00 +20°C° 0 mm 0 mps 664 mmHg 85%
09:00 +21°C° 0 mm 0 mps 665 mmHg 80%
10:00 +24°C° 0.2 mm 1 mps 664 mmHg 74%
11:00 +26°C° 0.2 mm 1 mps 664 mmHg 67%
12:00 +27°C° 0.2 mm 1 mps 664 mmHg 61%
13:00 +26°C° 1.1 mm 1 mps 664 mmHg 69%
14:00 +25°C° 1.1 mm 1 mps 663 mmHg 78%
15:00 +24°C° 1.1 mm 1 mps 663 mmHg 86%
16:00 +23°C° 1.5 mm 1 mps 663 mmHg 89%
17:00 +20°C° 1.5 mm 0 mps 663 mmHg 93%
18:00 +19°C° 1.5 mm 0 mps 663 mmHg 96%
19:00 +19°C° 1 mm 0 mps 663 mmHg 96%
20:00 +18°C° 1 mm 0 mps 663 mmHg 97%
21:00 +18°C° 1 mm 0 mps 663 mmHg 98%
22:00 +18°C° 0.7 mm 0 mps 663 mmHg 98%
23:00 +18°C° 0.7 mm 0 mps 663 mmHg 98%
Show more

We Need Your Consent

Meteoprog and our Service Providers may store and access personal data such as cookies, device identifiers or other similar technologies on your device and process such data to personalise content and ads, as well as provide social media features and to analyse the traffic.

  • Store and/or access information on your device

    Cookies, device identifiers or other information can be stored or accessed on your device for the purposes indicated above.

  • Personalised ads and content, ad and content measurement, audience insights, and products development

    Ads and content can be personalised based on a profile. More data can be added to better personalise ads and content. Ad and content performance can be measured. Insights about the audience who saw the ads and content can be derived. Such data can be used to develop or improve user’s experience, systems and software.

By clicking ‘I Agree’ you will allow the use of indicated cookies, device identifiers, web beacons or other similar technologies. Your settings can be changed in the browser on your device.

For certain purposes, legitimate interests may be relied on, rather than consent. You can read more about this in our Privacy and Cookie Policy.